ASTRA 1P (SES-24)

Last updated on Tue Sep 22 2026 00:03:16 GMT+0000 (Coordinated Universal Time)

1 60086U 24115A 26263.99392738 .00000116 00000+0 00000+0 0 9998 2 60086 0.0601 345.2938 0002142 241.1186 150.4975 1.00273575 8150
UTC large
Height (km)
Speed (km/s)
/
Latitude / Longitude
Inclination (degrees)
Orbital Period (minutes)
Azimuth
Elevation
Range (km)
Doppler Factor

Next 0 passes for location: London (51.5072 / 0.1276)

No passes found over London.
ASTRA 1P (SES-24)